[[{"header":{"parameterUnit":"m.s-1","parameterCategory":1,"la1":30.2991,"la2":30.254,"lo1":-89.0895,"lo2":-89.0444,"dy":0.0017,"dx":0.0017,"nx":28,"ny":28,"refTime":"2024-11-30T03:00:00:Z","depth":0,"parameterNumber":2,"parameterNumberName":"U-component_of_WINDS"},"data":[0,0,0,0,0,0,0,0,0,0,0,0,0,0,0,0,0,0,0,0,0,0,0,0,0,0,0,0,0,0,0,0,0,0,0,0,0,0,0,0,0,0,0,0,0,0,0,0,0,0,0,0,0,0,0,0,0,0,-2.5994,-2.5995,0,-2.6072,-2.6073,-2.6074,-2.5987,-2.5984,-2.5981,-2.5977,-2.6058,-2.6063,-2.6068,0,0,0,0,0,0,0,0,0,0,0,0,0,-2.5771,-2.5775,-2.5994,-2.5995,-2.5996,-2.6072,-2.6073,-2.6074,-2.5988,-2.5984,-2.598,-2.5976,-2.6056,-2.6062,-2.6069,0,0,0,0,0,0,0,0,0,0,0,0,0,-2.586,-2.5777,-2.5994,-2.5962,-2.596,-2.6072,-2.6073,-2.6074,-2.5989,-2.5984,-2.5979,-2.5974,-2.6054,-2.6062,-2.607,-2.6217,0,0,-2.6093,-2.6097,0,0,0,0,0,0,0,0,-2.5855,-2.5868,-2.5966,-2.5965,-2.5963,-2.6015,-2.6024,-2.6122,-2.599,-2.5978,-2.5977,-2.5972,-2.6048,-2.6056,-2.6081,-2.622,-2.6224,-2.6094,-2.6099,-2.6102,-2.6104,0,0,0,0,0,0,0,-2.5849,-2.5865,-2.6025,-2.5967,-2.5965,-2.5944,-2.5951,-2.6042,-2.604,-2.5978,-2.5972,-2.5983,-2.6046,-2.6074,-2.6082,-2.6225,-2.6094,-2.6101,-2.6106,-2.6109,-2.6488,-2.6493,0,0,0,0,0,0,-2.5846,-2.586,-2.6023,-2.6027,-2.5895,-2.5952,-2.596,-2.6003,-2.6038,-2.6039,-2.5987,-2.5978,-2.6063,-2.6073,-2.6085,-2.626,-2.6102,-2.611,-2.6114,-2.6483,-2.6489,-2.6495,0,0,0,0,0,0,-2.5842,-2.5862,-2.6019,-2.5942,-2.596,-2.5961,-2.601,-2.6007,-2.6035,-2.6045,-2.6044,-2.6016,-2.6059,-2.6074,-2.6184,-2.6261,-2.6113,-2.612,-2.6476,-2.6485,-2.6492,-2.6611,0,0,0,0,0,0,-2.5836,-2.5861,-2.5917,-2.5944,-2.5965,-2.6118,-2.6015,-2.6012,-2.6049,-2.6039,-2.6072,-2.6073,-2.6057,-2.6173,-2.6192,-2.6269,-2.6126,-2.6469,-2.648,-2.6489,-2.66,-2.6622,-2.664,0,0,0,0,0,-2.5828,-2.5948,-2.592,-2.594,-2.6035,-2.6123,-2.6135,-2.6114,-2.6055,-2.6112,-2.6117,-2.6072,-2.6249,-2.6185,-2.6206,-2.6287,-2.6464,-2.6477,-2.6489,-2.6591,-2.6617,-2.664,0,0,0,0,0,0,-2.5931,-2.5951,-2.5921,-2.6052,-2.6087,-2.6108,-2.6179,-2.6143,-2.6195,-2.6183,-2.6155,-2.6163,-2.628,-2.6294,-2.6222,-2.643,-2.6347,-2.6364,-2.6418,-2.6443,-2.6463,-2.6458,-2.6133,0,0,0,0,0,-2.5968,-2.6038,-2.6051,-2.6166,-2.6185,-2.6179,-2.6216,-2.6197,-2.6231,-2.6246,-2.6259,-2.6295,-2.6358,-2.6401,-2.646,-2.66,-2.6606,-2.6666,-2.6686,-2.6703,-2.6718,-2.6793,-2.682,-2.6535,-2.6534,-2.6534,0,0,-2.6048,-2.6067,-2.6113,-2.6187,-2.6212,-2.6284,-2.6192,-2.6273,-2.6326,-2.6258,-2.6363,-2.6374,-2.6412,-2.6538,-2.6594,-2.6553,-2.6798,-2.6718,-2.6731,-2.6738,-2.6808,-2.6835,-2.6859,-2.6543,-2.6541,-2.654,0,0,-2.6229,-2.6251,-2.6349,-2.6374,-2.6412,-2.6407,-2.643,-2.6457,-2.6462,-2.6566,-2.6516,-2.6579,-2.6689,-2.6718,-2.6747,-2.6937,-2.6897,-2.6956,-2.7064,-2.7137,-2.716,-2.7179,-2.7248,-2.7273,-2.6971,-2.6972,-2.6972,0,-2.6323,-2.6431,-2.6404,-2.6488,-2.6522,-2.6462,-2.6561,-2.6587,-2.6643,-2.6668,-2.662,-2.6756,-2.6777,-2.6909,-2.6955,-2.698,-2.7006,-2.6954,-2.7158,-2.7178,-2.7196,-2.7261,-2.7287,-2.6979,-2.6978,-2.6977,-2.6977,0,-2.6545,-2.662,-2.6694,-2.6749,-2.6791,-2.6882,-2.6869,-2.6915,-2.6891,-2.689,-2.6998,-2.702,-2.7082,-2.7111,-2.7089,-2.724,-2.7213,-2.7163,-2.7079,-2.7231,-2.7292,-2.7316,-2.6989,-2.6987,-2.6985,-2.6983,0,0,-2.6797,-2.6833,-2.6861,-2.6884,-2.692,-2.6977,-2.7065,-2.7125,-2.7166,-2.7204,-2.7278,-2.7371,-2.7324,-2.7357,-2.7337,-2.7401,-2.7551,-2.7342,-2.7343,-2.7381,-2.7719,-2.7758,-2.7787,-2.7523,-2.7527,-2.7531,-2.7716,0,-2.698,-2.7133,-2.711,-2.7257,-2.7326,-2.7269,-2.7345,-2.7375,-2.7376,-2.7435,-2.7436,-2.7503,-2.7435,-2.7455,-2.7515,-2.752,-2.7618,-2.7506,-2.7592,-2.7595,-2.7586,-2.7819,-2.7861,-2.8035,-2.7739,-2.7743,-2.7746,0,-2.7215,-2.7262,-2.7417,-2.744,-2.7468,-2.7538,-2.7591,-2.7647,-2.7679,-2.7675,-2.7711,-2.7679,-2.7766,-2.7679,-2.7799,-2.7723,-2.7756,-2.7763,-2.7769,-2.7778,-2.7682,-2.7836,-2.8089,-2.8116,-2.7783,-2.778,-2.7777,0,-2.7385,-2.7487,-2.7592,-2.7613,-2.7644,-2.7694,-2.7709,-2.7736,-2.7773,-2.7819,-2.7842,-2.7898,-2.7929,-2.7972,-2.7955,-2.7893,-2.8079,-2.799,-2.8079,-2.8079,-2.8123,-2.8121,-2.8387,-2.8141,-2.8141,-2.814,-2.8139,0,-2.7594,-2.7691,-2.7669,-2.7734,-2.784,-2.7812,-2.7918,-2.7926,-2.795,-2.8015,-2.7968,-2.803,-2.8003,-2.8063,-2.805,-2.8152,-2.8165,-2.8165,-2.8161,-2.8171,-2.8171,-2.8194,-2.8182,-2.8147,-2.8145,-2.8144,-2.8143,0,-2.7803,-2.7792,-2.7903,-2.7921,-2.7928,-2.8006,-2.8022,-2.8083,-2.8079,-2.8162,-2.818,-2.8175,-2.8243,-2.8229,-2.8305,-2.8296,-2.8423,-2.8403,-2.8413,-2.8409,-2.8499,-2.8491,-2.8791,-2.8829,-2.8557,-2.8559,-2.8562,0,-2.7938,-2.8011,-2.8037,-2.8077,-2.8095,-2.8161,-2.8198,-2.8172,-2.8213,-2.8254,-2.831,-2.8373,-2.8424,-2.8535,-2.8538,-2.8595,-2.8577,-2.8677,-2.8585,-2.8592,-2.858,-2.8577,-2.8584,-2.8697,-2.87,-2.8703,-2.8705,0,-2.8179,-2.817,-2.8225,-2.8279,-2.8325,-2.8366,-2.8403,-2.8438,-2.8415,-2.8463,-2.8532,-2.8571,-2.8647,-2.8711,-2.8763,-2.8777,-2.8738,-2.8733,-2.8757,-2.8769,-2.8772,-2.8773,-2.8465,-2.8727,-2.8725,-2.8723,-2.8722,-2.8721,-2.8357,-2.8419,-2.8446,-2.851,-2.8534,-2.8569,-2.8627,-2.863,-2.8687,-2.8747,-2.8727,-2.8806,-2.8834,-2.89,-2.8921,-2.8981,-2.8944,-2.8978,-2.8987,-2.8996,-2.9008,-2.876,-2.899,-2.899,-2.8989,-2.8989,-2.8988,0,-2.8597,-2.8611,-2.8669,-2.8722,-2.8771,-2.8728,-2.8765,-2.881,-2.888,-2.8909,-2.8959,-2.9037,-2.9098,-2.9105,-2.9163,-2.921,-2.9193,-2.9226,-2.9223,-2.9227,-2.9038,-2.9012,-2.9239,-2.9239,-2.9239,-2.9239,-2.9238,-2.9238,-2.8728,-2.8831,-2.8824,-2.8938,-2.8951,-2.9028,-2.9053,-2.9085,-2.9108,-2.9198,-2.9248,-2.9252,-2.9272,-2.933,-2.9384,-2.9384,-2.9408,-2.9449,-2.9442,-2.9266,-2.9241,-2.9217,-2.9193,-2.9454,-2.9454,-2.9627,-2.9628,-2.963]},{"header":{"parameterUnit":"m.s-1","parameterCategory":1,"la1":30.2991,"la2":30.254,"lo1":-89.0895,"lo2":-89.0444,"dy":0.0017,"dx":0.0017,"nx":28,"ny":28,"refTime":"2024-11-30T03:00:00:Z","depth":0,"parameterNumber":3,"parameterNumberName":"V-component_of_WINDS"},"data":[0,0,0,0,0,0,0,0,0,0,0,0,0,0,0,0,0,0,0,0,0,0,0,0,0,0,0,0,0,0,0,0,0,0,0,0,0,0,0,0,0,0,0,0,0,0,0,0,0,0,0,0,0,0,0,0,0,0,-7.028,-7.0282,0,-7.041,-7.0412,-7.0413,-7.031,-7.0306,-7.0301,-7.0297,-7.0424,-7.0432,-7.0439,0,0,0,0,0,0,0,0,0,0,0,0,0,-6.9935,-6.9942,-7.028,-7.0282,-7.0284,-7.041,-7.0412,-7.0414,-7.0311,-7.0305,-7.03,-7.0295,-7.0422,-7.0431,-7.044,0,0,0,0,0,0,0,0,0,0,0,0,0,-7.0077,-6.9944,-7.028,-7.0248,-7.0246,-7.041,-7.0412,-7.0414,-7.0312,-7.0305,-7.0299,-7.0293,-7.0419,-7.043,-7.0441,-7.0642,0,0,-7.0475,-7.048,0,0,0,0,0,0,0,0,-7.0069,-7.009,-7.0251,-7.025,-7.0249,-7.0337,-7.0337,-7.049,-7.0314,-7.0287,-7.0297,-7.0289,-7.04,-7.0413,-7.0451,-7.0648,-7.0653,-7.0476,-7.0483,-7.0488,-7.0491,0,0,0,0,0,0,0,-7.0059,-7.0084,-7.0331,-7.0253,-7.0252,-7.0224,-7.0237,-7.0365,-7.0379,-7.0289,-7.0281,-7.0299,-7.0398,-7.0441,-7.0453,-7.0655,-7.0476,-7.0486,-7.0493,-7.0497,-7.102,-7.1027,0,0,0,0,0,0,-7.0054,-7.0076,-7.0327,-7.0335,-7.0141,-7.0236,-7.025,-7.0315,-7.0377,-7.038,-7.0304,-7.0293,-7.0425,-7.0441,-7.0458,-7.0696,-7.0488,-7.0498,-7.0505,-7.1013,-7.1021,-7.1029,0,0,0,0,0,0,-7.0047,-7.0077,-7.0322,-7.0204,-7.0233,-7.0249,-7.0323,-7.0321,-7.0364,-7.0389,-7.039,-7.0346,-7.042,-7.0442,-7.0597,-7.0698,-7.0503,-7.0513,-7.1004,-7.1015,-7.1025,-7.1174,0,0,0,0,0,0,-7.0037,-7.0075,-7.0154,-7.0207,-7.024,-7.0462,-7.0329,-7.0329,-7.0384,-7.0371,-7.0428,-7.0431,-7.0417,-7.058,-7.0608,-7.071,-7.0522,-7.0995,-7.1009,-7.1022,-7.116,-7.1189,-7.1213,0,0,0,0,0,-7.0025,-7.019,-7.0158,-7.0189,-7.0339,-7.0468,-7.0487,-7.0469,-7.0393,-7.047,-7.0486,-7.0429,-7.0683,-7.0597,-7.0627,-7.0735,-7.0989,-7.1005,-7.1021,-7.1148,-7.1183,-7.1212,0,0,0,0,0,0,-7.0147,-7.0196,-7.0162,-7.0349,-7.0405,-7.045,-7.0548,-7.0506,-7.0584,-7.0569,-7.0541,-7.0555,-7.0717,-7.0741,-7.0645,-7.0931,-7.0823,-7.0846,-7.091,-7.0943,-7.0969,-7.096,-7.0531,0,0,0,0,0,-7.0195,-7.0299,-7.0335,-7.0496,-7.0526,-7.0533,-7.0588,-7.057,-7.0626,-7.0649,-7.0676,-7.0731,-7.0823,-7.0884,-7.097,-7.1163,-7.1172,-7.1251,-7.1277,-7.1299,-7.1319,-7.142,-7.1455,-7.1082,-7.1082,-7.1082,0,0,-7.0297,-7.0336,-7.0403,-7.0522,-7.0563,-7.0668,-7.0553,-7.067,-7.0747,-7.0666,-7.0814,-7.0836,-7.0895,-7.107,-7.1147,-7.1094,-7.1424,-7.132,-7.1337,-7.1345,-7.1441,-7.1476,-7.1507,-7.1093,-7.1091,-7.1089,0,0,-7.0535,-7.0576,-7.0714,-7.0759,-7.0823,-7.0826,-7.0859,-7.0911,-7.0923,-7.1072,-7.1013,-7.1102,-7.1262,-7.1306,-7.1349,-7.1603,-7.1553,-7.1631,-7.1769,-7.1869,-7.1898,-7.1924,-7.2013,-7.2046,-7.1651,-7.1652,-7.1652,0,-7.0652,-7.0811,-7.079,-7.0911,-7.0964,-7.0897,-7.1035,-7.1078,-7.1167,-7.1204,-7.1143,-7.1341,-7.1376,-7.1559,-7.1621,-7.1659,-7.1694,-7.1625,-7.1896,-7.1922,-7.1945,-7.203,-7.2064,-7.1661,-7.166,-7.1659,-7.1658,0,-7.0951,-7.1061,-7.1165,-7.1254,-7.1318,-7.1448,-7.1444,-7.1511,-7.1486,-7.1494,-7.1645,-7.1685,-7.1777,-7.1819,-7.1796,-7.1998,-7.1963,-7.19,-7.1791,-7.1991,-7.2069,-7.2102,-7.1674,-7.167,-7.1668,-7.1665,0,0,-7.127,-7.1346,-7.1385,-7.1424,-7.149,-7.1573,-7.1698,-7.179,-7.1847,-7.191,-7.2012,-7.2148,-7.2089,-7.2139,-7.2119,-7.2207,-7.2403,-7.2132,-7.2133,-7.218,-7.2627,-7.2674,-7.2712,-7.237,-7.2376,-7.2381,-7.2621,0,-7.1511,-7.1731,-7.1715,-7.1921,-7.2021,-7.1958,-7.2066,-7.2117,-7.2127,-7.2212,-7.2222,-7.2319,-7.2235,-7.2264,-7.2348,-7.2362,-7.2492,-7.2344,-7.2463,-7.2467,-7.245,-7.2753,-7.2804,-7.3029,-7.2652,-7.2657,-7.2661,0,-7.1822,-7.1898,-7.2114,-7.2164,-7.2205,-7.2303,-7.2385,-7.2467,-7.2522,-7.2523,-7.2579,-7.2544,-7.2666,-7.2555,-7.2722,-7.2621,-7.2668,-7.2682,-7.269,-7.2701,-7.2576,-7.2771,-7.3101,-7.3134,-7.271,-7.2706,-7.2702,0,-7.2032,-7.2188,-7.2337,-7.2372,-7.2434,-7.2504,-7.2532,-7.2581,-7.2637,-7.2707,-7.2743,-7.2826,-7.2872,-7.2936,-7.2923,-7.2844,-7.3093,-7.2981,-7.3096,-7.3097,-7.3152,-7.3148,-7.3493,-7.3183,-7.3183,-7.3182,-7.3181,0,-7.2303,-7.2438,-7.2432,-7.2524,-7.2672,-7.2651,-7.2797,-7.2817,-7.2861,-7.2953,-7.2902,-7.299,-7.2968,-7.3054,-7.3045,-7.3184,-7.3205,-7.3207,-7.3203,-7.3212,-7.3212,-7.3243,-7.3226,-7.3191,-7.3189,-7.3187,-7.3186,0,-7.2563,-7.2565,-7.2724,-7.2769,-7.2783,-7.2891,-7.2928,-7.3013,-7.3019,-7.3136,-7.3163,-7.3171,-7.327,-7.3264,-7.3374,-7.3367,-7.3539,-7.3516,-7.3521,-7.3516,-7.3631,-7.362,-7.4008,-7.4057,-7.3716,-7.3719,-7.3722,0,-7.2736,-7.2838,-7.2895,-7.2954,-7.2988,-7.3084,-7.314,-7.3122,-7.3183,-7.3253,-7.3329,-7.3423,-7.3497,-7.3657,-7.3671,-7.3755,-7.3734,-7.3863,-7.3746,-7.3751,-7.3734,-7.3729,-7.3738,-7.3887,-7.389,-7.3894,-7.3896,0,-7.3041,-7.3037,-7.3122,-7.3208,-7.3278,-7.3343,-7.3403,-7.3454,-7.3442,-7.3512,-7.3613,-7.3671,-7.3784,-7.3877,-7.3957,-7.3982,-7.3937,-7.3933,-7.3964,-7.3974,-7.3972,-7.3974,-7.3584,-7.3924,-7.3921,-7.3919,-7.3918,-7.3917,-7.3263,-7.335,-7.3403,-7.3499,-7.3543,-7.36,-7.3682,-7.3698,-7.3783,-7.3875,-7.3858,-7.3971,-7.402,-7.4123,-7.4157,-7.4242,-7.4196,-7.4241,-7.4252,-7.4263,-7.4276,-7.3959,-7.4257,-7.4256,-7.4255,-7.4254,-7.4254,0,-7.3565,-7.3596,-7.3684,-7.3771,-7.3845,-7.3798,-7.3861,-7.3926,-7.4027,-7.4078,-7.4152,-7.4267,-7.4357,-7.4378,-7.4463,-7.4528,-7.4509,-7.4551,-7.4546,-7.4552,-7.4314,-7.4278,-7.4565,-7.4565,-7.4565,-7.4564,-7.4564,-7.4564,-7.3731,-7.3876,-7.3878,-7.4043,-7.4072,-7.4184,-7.4224,-7.4275,-7.4316,-7.4447,-7.4522,-7.4536,-7.4574,-7.4662,-7.4741,-7.4744,-7.4778,-7.4828,-7.4823,-7.46,-7.4569,-7.4539,-7.4506,-7.4836,-7.4836,-7.5054,-7.5056,-7.5058]}]]